Regional Weather Roundup
Issued by NWS Jackson, KY

Home | Current Version | Previous Version | Graphics & Text | Print | Product List | Glossary On
Versions: 1 2 3 4 5 6 7 8 9 10 11 12 13 14 15 16 17 18 19 20 21 22 23 24 25 26 27 28 29 30 31 32 33 34 35 36 37 38 39 40 41 42 43 44 45 46 47 48 49 50
945
ASUS43 KJKL 052310
RWRJKL

EAST KENTUCKY HOURLY WEATHER ROUNDUP
NATIONAL WEATHER SERVICE JACKSON KY
600 PM EST FRI FEB 05 2016

NOTE: "FAIR" INDICATES FEW OR NO CLOUDS BELOW 12,000 FEET WITH
NO SIGNIFICANT WEATHER AND/OR OBSTRUCTIONS TO VISIBILITY.

* THESE REPORTS ARE NOT UNDER NWS QUALITY CONTROL AND MAY NOT
  REPORT WEATHER SUCH AS PRECIPITATION AND FOG.

KYZ079-080-083-085-087-088-110-112-115-119-120-060000
...EASTERN KENTUCKY...

CITY           SKY/WX    TMP DP  RH WIND       PRES   REMARKS
JACKSON        CLOUDY    38  12  34 CALM      30.38R
LONDON         CLOUDY    39  13  34 CALM      30.38S
SOMERSET*      CLOUDY    37  16  41 CALM      30.41F
MONTICELLO*    CLOUDY    39  22  50 W7        30.41F WCI  34
WILLIAMSBURG*  CLOUDY    39  10  30 CALM      30.39S
MIDDLESBORO*   CLOUDY    40  13  33 CALM      30.39S
HARLAN APT*      N/A     39   9  28 CALM      30.37S
HAZARD APT*    CLEAR    N/A N/A N/A CALM      30.39
BLACK MTN*       N/A     27  12  54 N1          N/A
BIG SANDY*     CLOUDY    38  13  36 CALM      30.39R
MOREHEAD APT*  CLOUDY    37  14  38 CALM      30.40S
$$

KYZ035-036-041-042-044-050-067-078-099-060000
...CENTRAL KENTUCKY...

CITY           SKY/WX    TMP DP  RH WIND       PRES   REMARKS
MT STERLING*   CLOUDY    37  19  48 SW3       30.39F
DANVILLE*      CLOUDY    37  19  48 CALM      30.39S
RICHMOND*      CLOUDY    39  16  38 S3        30.38S
LEXINGTON      CLOUDY    38  18  44 S6        30.37S WCI  33
FRANKFORT      CLOUDY    40  17  39 S7        30.36S
$$

KYZ091>093-OHZ055-061-077-WVZ005-015-034-035-042-060000
...SOUTHERN OHIO/WEST VIRGINIA...

CITY           SKY/WX    TMP DP  RH WIND       PRES   REMARKS
COVINGTON      MOCLDY    39  18  42 S7        30.35S WCI  34
COLUMBUS       MOCLDY    35  16  45 S6        30.36S WCI  30
DAYTON         CLOUDY    38  19  46 S10       30.33S WCI  31
WILMINGTON     CLOUDY    34  22  61 S7        30.35S WCI  28
HUNTINGTON       N/A     39  13  34 S3        30.39S
CHARLESTON       N/A     37  14  38 CALM      30.39S
PINEVILLE*       N/A     31  17  55 MISG      30.41R
BECKLEY          N/A     30  12  47 N5        30.32R WCI  25
$$

VAZ002-007-008-TNZ017-027-036-066-071-060000
...SOUTHWEST VIRGINIA/EAST TENNESSEE...

CITY           SKY/WX    TMP DP  RH WIND       PRES   REMARKS
BRISTOL        PTCLDY    38   9  30 N3        30.37R
KNOXVILLE      MOCLDY    41  15  35 E5        30.39S
OAK RIDGE      CLEAR     44  11  26 SE3       30.40S
CROSSVILLE     CLEAR     40  12  32 N5        30.36S
NASHVILLE      MOCLDY    47  12  24 CALM      30.39F
$$

...KEY TO REMARKS...
VSB - VISIBILITY IN MILES
WCI - WIND CHILL INDEX
HX  - HEAT INDEX

$$




USA.gov is the U.S. government's official web portal to all federal, state and local government web resources and services.